軌道要素
Epoch 2022 Jan. 21.0 TT = JDT 2459600.5
T 2022 July 30.37902 TT Rudenko
q 1.0804766 (2000.0) P Q
z +0.0031969 Peri. 175.82271 -0.96755583 -0.18539981
+/-0.0000018 Node 348.09487 +0.20093073 -0.15276568
e 0.9965458 Incl. 56.31075 +0.15317493 -0.97071600
From 639 observations 2021 Aug. 10-2022 Apr. 12, mean residual 0".6.
|